This demonstration page uses our WeatherBlox Daily Observations layout. Learn more.

Left ArrowRight Arrow

Hourly Observations for October 20, 2016

Temp ( °F °C ) Dew Point ( °F °C ) Humidity (%) Winds ( mph kmh ) Pressure ( in mb ) Visibility ( mi km ) Precip ( " mm )
12:53 am 00:53 Clear 64 17.8 39 3.9 40 40 NNE 10 17 29.95 1014 10 16 0.00 0.00
1:53 am 01:53 Clear 62 16.7 39 3.9 43 43 N 12 19 29.96 1015 10 16 0.00 0.00
2:53 am 02:53 Clear with Light Rain 63 17.2 43 6.1 48 48 NNE 18 30 29.98 1015 10 16 0.00 0.03
3:53 am 03:53 Clear 63 17.2 44 6.7 50 50 NNE 20 31 30.02 1017 10 16 0.00 0.03
4:53 am 04:53 Clear 62 16.7 45 7.2 54 54 NNE 20 31 30.06 1018 10 16 0.00 0.00
5:53 am 05:53 Clear 62 16.7 44 6.7 52 52 NNE 18 30 30.10 1019 10 16 0.00 0.00
6:53 am 06:53 Mostly Cloudy 61 16.1 43 6.1 52 52 NNE 18 30 30.14 1021 10 16 0.00 0.03
7:53 am 07:53 Mostly Clear with Light Rain 59 15 42 5.6 54 54 NNE 15 24 30.19 1023 10 16 0.00 0.03
8:53 am 08:53 Mostly Sunny 59 15 42 5.6 54 54 N 14 22 30.24 1024 10 16 0.00 0.03
9:53 am 09:53 Mostly Cloudy 62 16.7 43 6.1 50 50 NNE 17 28 30.28 1025 10 16 0.00 0.00
10:53 am 10:53 Mostly Cloudy 67 19.4 42 5.6 41 41 NE 18 30 30.30 1026 10 16 0.00 0.00
11:53 am 11:53 Cloudy 70 21.1 40 4.4 34 34 NNE 15 24 30.30 1026 10 16 0.00 0.00
12:53 pm 12:53 Cloudy 70 21.1 39 3.9 32 32 ENE 13 20 30.29 1026 10 16 0.00 0.00
1:53 pm 13:53 Sunny 73 22.8 36 2.2 26 26 NE 12 19 30.26 1025 10 16 0.00 0.00
5:53 pm 17:53 Sunny 75 23.9 34 1.1 22 22 ENE 10 17 30.18 1022 10 16 0.00 0.00
6:53 pm 18:53 Sunny 71 21.7 31 -0.6 23 23 E 9 15 30.19 1022 10 16 0.00 0.00
7:53 pm 19:53 Clear 64 17.8 32 0 30 30 E 9 15 30.22 1023 10 16 0.00 0.00
8:53 pm 20:53 Clear 60 15.6 32 0 35 35 E 7 11 30.24 1024 10 16 0.00 0.00
9:53 pm 21:53 Clear 59 15 33 0.6 38 38 E 8 13 30.26 1025 10 16 0.00 0.00
10:53 pm 22:53 Clear 56 13.3 34 1.1 44 44 E 7 11 30.27 1025 10 16 0.00 0.00
11:53 pm 23:53 Clear 55 13 34 1 44 44 E 8 13 30.33 1027 10 16 0.00 0.00

Powered by AerisWeather